Regional Weather Roundup
Issued by NWS

Home | Current Version | Previous Version | Text Only | Print | Product List | Glossary On
Versions: 1 2 3 4 5 6 7 8 9 10 11 12 13 14 15 16 17 18 19 20 21 22 23 24 25 26 27 28 29 30 31 32 33 34 35 36 37 38 39 40 41 42 43 44 45 46 47 48 49 50
000
ASUS43 KLMK 200210
RWRKY
KENTUCKY REGIONAL WEATHER ROUNDUP
NATIONAL WEATHER SERVICE LOUISVILLE KY
900 PM EST SUN FEB 19 2017

NOTE "FAIR" INDICATES FEW OR NO CLOUDS BELOW 12,000 FEET
WITH NO SIGNIFICANT WEATHER AND/OR OBSTRUCTIONS TO VISIBILITY.

KYZ001>023-026-027-061>063-070>075-200300-
WESTERN AND SOUTH CENTRAL KENTUCKY

CITY           SKY/WX    TMP DP  RH WIND       PRES   REMARKS
PADUCAH        PTCLDY    52  50  93 E6        30.08S FOG
HENDERSON        N/A     45  41  87 CALM      30.10S VSB 3/4
OWENSBORO      CLEAR     49  48  97 NE5       30.12S FOG
HOPKINSVILLE   CLEAR     57  53  88 E3        30.10S
BOWLING GREEN  CLEAR     50  47  89 CALM      30.12S FOG
GLASGOW        CLEAR     48  48 100 CALM      30.13S
$$

KYZ024-025-028>034-038-045-046-053-200300-
NORTH CENTRAL KENTUCKY

CITY           SKY/WX    TMP DP  RH WIND       PRES   REMARKS
LOUISVILLE/SDF PTCLDY    49  45  86 CALM      30.13S FOG
LOUISVILLE/LOU CLEAR     46  43  89 CALM      30.14R FOG
FORT KNOX      PTCLDY    42  42 100 CALM      30.12R FOG
$$

KYZ035>037-039>044-047>052-055>060-089>105-200300-
NORTHEAST KENTUCKY

CITY           SKY/WX    TMP DP  RH WIND       PRES   REMARKS
LEXINGTON      CLEAR     48  45  89 E7        30.14S
COVINGTON      CLEAR     47  45  93 S5        30.14R FOG
FRANKFORT      CLEAR     44  41  89 NE3       30.13R FOG
$$

KYZ054-064>069-076>088-106>120-200300-
SOUTHEAST KENTUCKY

CITY           SKY/WX    TMP DP  RH WIND       PRES   REMARKS
JACKSON        CLEAR     52  44  74 NE5       30.15F
LONDON         CLEAR     49  43  80 CALM      30.14S
SOMERSET       CLEAR     50  43  76 CALM      30.14F
MIDDLESBORO    CLEAR     45  44  94 CALM      30.16S
MONTICELLO     CLEAR     45  42  89 CALM      30.16R
$$





USA.gov is the U.S. government's official web portal to all federal, state and local government web resources and services.